Weather History for PAWI - August, 2014

Change the Weather History Date:

Tuesday, August 19, 2014

  Actual Average (PABR) Record (PABR)
Temperature  
Mean Temperature 44 °F 39 °F  
Max Temperature 54 °F 44 °F 66 °F (2012)
Min Temperature 35 °F 34 °F 24 °F (1933)
Degree Days  
Heating Degree Days 20 26  
Month to date heating degree days 481  
Since 1 June heating degree days 2108  
Since 1 July heating degree days 1228  
Cooling Degree Days 0    
Month to date cooling degree days  
Year to date cooling degree days  
Since 1 June cooling degree days  
Moisture  
Dew Point 39 °F    
Average Humidity 86    
Maximum Humidity 96    
Minimum Humidity 71    
Precipitation  
Precipitation 0.00 in 0.03 in 0.37 in (1961)
Month to date precipitation 0.65  
Year to date precipitation 2.65  
Snow  
Snow 0.00 in 0.10 in 1.40 in (1971)
Month to date snowfall 0.4  
Since 1 June snowfall 1.3  
Since 1 July snowfall 0.6  
Snow Depth -    
Sea Level Pressure  
Sea Level Pressure 29.98 in    
Wind  
Wind Speed 4 mph (ENE)    
Max Wind Speed 10 mph    
Max Gust Speed -    
Visibility 8 miles    
Events      
T = Trace of Precipitation, MM = Missing Value Source: NWS Daily Summary

Daily Weather History Graph

Daily Weather History Graph

Search for Another Location

Airport or City:

Trip Planner

Search our weather history database for the weather conditions in past years. The results will help you decide how hot, cold, wet, or windy it might be!

Date:

Astronomy

Aug. 19, 2014 Rise Set
Actual Time 5:50 AM AKDT 11:32 PM AKDT
Civil Twilight 3:44 AM AKDT 1:29 AM AKDT
Nautical Twilight Sun does not rise Sun does not rise
Astronomical Twilight Sun does not rise Sun does not rise
Moon 11:50 PM AKDT (8/19) 9:33 PM AKDT (8/19)
Length of Visible Light 21h 45m
Length of Day
17h 41m
Waning Crescent, 28% of the Moon is Illuminated
Aug 19
Waning Crescent
Aug 25
New
Sep 2
First Quarter
Sep 8
Full
Sep 15
Last Quarter

Hourly Weather History & Observations

Time (AKDT) Temp. Windchill Dew Point Humidity Pressure Visibility Wind Dir Wind Speed Gust Speed Precip Events Conditions
1:53 AM 37.0 °F 32.4 °F 34.0 °F 89% 29.92 in 10.0 mi North 5.8 mph - N/A   Overcast
2:53 AM 36.0 °F 32.1 °F 33.1 °F 89% 29.94 in 10.0 mi NNW 4.6 mph - N/A   Overcast
3:33 AM 35.6 °F 31.7 °F 33.8 °F 93% 29.94 in 10.0 mi North 4.6 mph - N/A   Overcast
4:53 AM 36.0 °F 32.1 °F 34.0 °F 93% 29.95 in 10.0 mi North 4.6 mph - N/A   Overcast
5:53 AM 37.0 °F - 35.1 °F 93% 29.96 in 10.0 mi Calm Calm - N/A   Overcast
6:12 AM 37.4 °F - 33.8 °F 87% 29.96 in 10.0 mi Calm Calm - N/A   Overcast
6:50 AM 35.6 °F - 33.8 °F 93% 29.96 in 7.0 mi Calm Calm - N/A   Overcast
6:53 AM 37.0 °F - 34.0 °F 89% 29.97 in 8.0 mi Calm Calm - N/A   Overcast
7:12 AM 35.6 °F - 33.8 °F 93% 29.97 in 2.0 mi Calm Calm - N/A   Overcast
7:25 AM 35.6 °F - 33.8 °F 93% 29.97 in 2.0 mi Calm Calm - N/A   Overcast
7:32 AM 35.6 °F - 33.8 °F 93% 29.97 in 1.5 mi Calm Calm - N/A   Overcast
7:53 AM 37.0 °F - 35.1 °F 93% 29.97 in 1.2 mi Calm Calm - N/A   Overcast
8:28 AM 39.2 °F - 37.4 °F 93% 29.97 in 2.5 mi Calm Calm - N/A   Overcast
8:53 AM 39.0 °F - 37.9 °F 96% 29.97 in 2.5 mi Calm Calm - N/A   Overcast
8:56 AM 39.2 °F - 37.4 °F 93% 29.97 in 3.0 mi Calm Calm - N/A   Overcast
9:53 AM 42.1 °F 40.2 °F 39.0 °F 89% 29.98 in 10.0 mi ESE 3.5 mph - N/A   Overcast
10:53 AM 44.1 °F 42.5 °F 39.0 °F 82% 29.99 in 10.0 mi SE 3.5 mph - N/A   Overcast
11:53 AM 39.9 °F 36.7 °F 36.0 °F 86% 29.99 in 3.0 mi North 4.6 mph - N/A   Overcast
12:12 PM 41.0 °F 38.0 °F 37.4 °F 87% 29.99 in 5.0 mi North 4.6 mph - N/A   Overcast
1:53 PM 46.0 °F - 41.0 °F 83% 30.01 in 10.0 mi Calm Calm - N/A   Overcast
2:19 PM 46.4 °F 44.3 °F 42.8 °F 87% 30.00 in 10.0 mi ESE 4.6 mph - N/A   Overcast
2:53 PM 48.0 °F - 43.0 °F 83% 30.01 in 10.0 mi SE 4.6 mph - N/A   Overcast
3:53 PM 45.0 °F 41.2 °F 39.0 °F 80% 30.01 in 10.0 mi North 6.9 mph - N/A   Overcast
4:53 PM 50.0 °F - 43.0 °F 77% 30.01 in 10.0 mi North 6.9 mph - N/A   Overcast
5:53 PM 53.1 °F - 44.1 °F 71% 30.00 in 10.0 mi East 5.8 mph - N/A   Overcast
6:46 PM 53.6 °F - 44.6 °F 72% 30.00 in 10.0 mi East 4.6 mph - N/A   Scattered Clouds
6:53 PM 54.0 °F - 45.0 °F 72% 29.99 in 10.0 mi East 6.9 mph - N/A   Partly Cloudy
7:53 PM 52.0 °F - 44.1 °F 74% 30.00 in 10.0 mi ENE 10.4 mph - N/A   Scattered Clouds
8:53 PM 50.0 °F - 44.1 °F 80% 30.00 in 10.0 mi ENE 6.9 mph - N/A   Mostly Cloudy
9:53 PM 52.0 °F - 46.0 °F 80% 30.01 in 10.0 mi East 5.8 mph - N/A   Overcast
10:53 PM 48.9 °F - 44.1 °F 83% 30.01 in 10.0 mi SE 9.2 mph - N/A   Overcast
11:53 PM 46.9 °F - 44.1 °F 90% 30.01 in 10.0 mi SE 8.1 mph - N/A   Overcast